Time,TemperatureF,DewpointF,PressureIn,WindDirection,WindDirectionDegrees,WindSpeedMPH,WindSpeedGustMPH,Humidity,HourlyPrecipIn,Conditions,Clouds,dailyrainin,SoftwareType,DateUTC
2013-01-03 00:00:00,27.6,16.0,29.95,SSW,202,0.0,-999.0,57,0.00,,,0.00,Rainwise IP-100,2013-01-03 05:00:00,
2013-01-03 00:02:00,27.6,16.0,29.96,SSW,202,0.0,-999.0,57,0.00,,,0.00,Rainwise IP-100,2013-01-03 05:02:00,
2013-01-03 00:04:00,27.5,16.0,29.96,SSW,202,0.0,-999.0,57,0.00,,,0.00,Rainwise IP-100,2013-01-03 05:04:00,
2013-01-03 00:09:00,27.4,16.0,29.96,SSW,202,1.9,-999.0,58,0.00,,,0.00,Rainwise IP-100,2013-01-03 05:09:00,
2013-01-03 00:10:00,27.4,16.0,29.96,SSW,202,0.0,-999.0,58,0.00,,,0.00,Rainwise IP-100,2013-01-03 05:10:00,
2013-01-03 00:15:00,27.3,16.0,29.96,SSW,202,0.0,-999.0,58,0.00,,,0.00,Rainwise IP-100,2013-01-03 05:15:00,
2013-01-03 00:21:00,27.3,16.0,29.95,SSW,202,0.0,-999.0,57,0.00,,,0.00,Rainwise IP-100,2013-01-03 05:21:00,
2013-01-03 00:26:00,27.2,16.0,29.95,SSW,202,0.0,-999.0,58,0.00,,,0.00,Rainwise IP-100,2013-01-03 05:26:00,
2013-01-03 00:31:00,27.2,16.0,29.95,SSW,202,0.0,-999.0,57,0.00,,,0.00,Rainwise IP-100,2013-01-03 05:31:00,
2013-01-03 00:36:00,27.2,16.0,29.95,SSW,202,0.0,-999.0,58,0.00,,,0.00,Rainwise IP-100,2013-01-03 05:36:00,
2013-01-03 00:41:00,27.1,16.0,29.95,SSW,202,0.0,-999.0,59,0.00,,,0.00,Rainwise IP-100,2013-01-03 05:41:00,
2013-01-03 00:46:00,26.9,16.0,29.95,SSW,202,0.0,-999.0,60,0.00,,,0.00,Rainwise IP-100,2013-01-03 05:46:00,
2013-01-03 00:51:00,26.8,16.0,29.94,SSW,202,0.0,-999.0,59,0.00,,,0.00,Rainwise IP-100,2013-01-03 05:51:00,
2013-01-03 00:56:00,26.7,16.0,29.94,SSW,202,0.0,-999.0,59,0.00,,,0.00,Rainwise IP-100,2013-01-03 05:56:00,
2013-01-03 01:01:00,26.6,16.0,29.93,SSW,202,0.0,-999.0,59,0.00,,,0.00,Rainwise IP-100,2013-01-03 06:01:00,
2013-01-03 01:06:00,26.6,16.0,29.94,SSW,202,0.0,-999.0,59,0.00,,,0.00,Rainwise IP-100,2013-01-03 06:06:00,
2013-01-03 01:11:00,26.7,16.0,29.94,SSW,202,0.0,-999.0,59,0.00,,,0.00,Rainwise IP-100,2013-01-03 06:11:00,
2013-01-03 01:17:00,26.7,16.0,29.93,SSW,202,0.0,-999.0,59,0.00,,,0.00,Rainwise IP-100,2013-01-03 06:17:00,
2013-01-03 01:22:00,26.8,16.0,29.93,SSW,202,0.0,-999.0,59,0.00,,,0.00,Rainwise IP-100,2013-01-03 06:22:00,
2013-01-03 01:27:00,26.8,16.0,29.94,SSW,202,0.0,-999.0,59,0.00,,,0.00,Rainwise IP-100,2013-01-03 06:27:00,
2013-01-03 01:32:00,26.8,16.0,29.94,SSW,202,0.0,-999.0,59,0.00,,,0.00,Rainwise IP-100,2013-01-03 06:32:00,
2013-01-03 01:37:00,26.9,16.0,29.94,SSW,202,0.0,-999.0,58,0.00,,,0.00,Rainwise IP-100,2013-01-03 06:37:00,
2013-01-03 01:42:00,27.0,16.0,29.94,SSW,202,0.0,-999.0,58,0.00,,,0.00,Rainwise IP-100,2013-01-03 06:42:00,
2013-01-03 01:47:00,27.0,16.0,29.94,SSW,202,0.0,-999.0,58,0.00,,,0.00,Rainwise IP-100,2013-01-03 06:47:00,
2013-01-03 01:52:00,27.1,16.0,29.95,SSW,202,0.0,-999.0,58,0.00,,,0.00,Rainwise IP-100,2013-01-03 06:52:00,
2013-01-03 01:57:00,27.1,16.0,29.95,SSW,202,0.0,-999.0,58,0.00,,,0.00,Rainwise IP-100,2013-01-03 06:57:00,
2013-01-03 02:02:00,27.0,16.0,29.95,SSW,202,0.0,-999.0,57,0.00,,,0.00,Rainwise IP-100,2013-01-03 07:02:00,
2013-01-03 02:07:00,27.0,16.0,29.95,SSW,202,0.0,-999.0,58,0.00,,,0.00,Rainwise IP-100,2013-01-03 07:07:00,
2013-01-03 02:12:00,27.1,16.0,29.96,SSW,202,0.0,-999.0,58,0.00,,,0.00,Rainwise IP-100,2013-01-03 07:12:00,
2013-01-03 02:18:00,27.2,16.0,29.96,SSW,202,0.0,-999.0,58,0.00,,,0.00,Rainwise IP-100,2013-01-03 07:18:00,
2013-01-03 02:23:00,27.1,16.0,29.95,SSW,202,0.0,-999.0,59,0.00,,,0.00,Rainwise IP-100,2013-01-03 07:23:00,
2013-01-03 02:28:00,27.0,16.0,29.96,SSW,202,0.0,-999.0,59,0.00,,,0.00,Rainwise IP-100,2013-01-03 07:28:00,
2013-01-03 02:33:00,26.9,16.0,29.96,SSW,202,0.0,-999.0,61,0.00,,,0.00,Rainwise IP-100,2013-01-03 07:33:00,
2013-01-03 02:38:00,26.8,16.0,29.96,SSW,202,0.0,-999.0,63,0.00,,,0.00,Rainwise IP-100,2013-01-03 07:38:00,
2013-01-03 02:43:00,26.7,16.0,29.95,SSW,202,0.0,-999.0,62,0.00,,,0.00,Rainwise IP-100,2013-01-03 07:43:00,
2013-01-03 02:48:00,26.6,16.0,29.96,SSW,202,0.0,-999.0,63,0.00,,,0.00,Rainwise IP-100,2013-01-03 07:48:00,
2013-01-03 02:53:00,26.6,18.0,29.95,SSW,202,0.0,-999.0,65,0.00,,,0.00,Rainwise IP-100,2013-01-03 07:53:00,
2013-01-03 02:58:00,26.6,18.0,29.96,SSW,202,0.0,-999.0,66,0.00,,,0.00,Rainwise IP-100,2013-01-03 07:58:00,
2013-01-03 03:03:00,26.6,18.0,29.96,SSW,202,0.0,-999.0,66,0.00,,,0.00,Rainwise IP-100,2013-01-03 08:03:00,
2013-01-03 03:08:00,26.7,18.0,29.95,SSW,202,0.0,-999.0,66,0.00,,,0.00,Rainwise IP-100,2013-01-03 08:08:00,
2013-01-03 03:13:00,26.7,18.0,29.95,SSW,202,0.0,-999.0,67,0.00,,,0.00,Rainwise IP-100,2013-01-03 08:13:00,
2013-01-03 03:19:00,26.7,18.0,29.96,SSW,202,0.0,-999.0,67,0.00,,,0.00,Rainwise IP-100,2013-01-03 08:19:00,
2013-01-03 03:24:00,26.6,18.0,29.96,SSW,202,0.0,-999.0,66,0.00,,,0.00,Rainwise IP-100,2013-01-03 08:24:00,
2013-01-03 03:29:00,26.6,18.0,29.96,SSW,202,0.0,-999.0,66,0.00,,,0.00,Rainwise IP-100,2013-01-03 08:29:00,
2013-01-03 03:34:00,26.5,18.0,29.96,SSW,202,0.0,-999.0,66,0.00,,,0.00,Rainwise IP-100,2013-01-03 08:34:00,
2013-01-03 03:39:00,26.4,16.0,29.95,SSW,202,0.0,-999.0,67,0.00,,,0.00,Rainwise IP-100,2013-01-03 08:39:00,
2013-01-03 03:44:00,26.4,16.0,29.95,SSW,202,0.0,-999.0,67,0.00,,,0.00,Rainwise IP-100,2013-01-03 08:44:00,
2013-01-03 03:49:00,26.3,18.0,29.95,SSW,202,0.0,-999.0,68,0.00,,,0.00,Rainwise IP-100,2013-01-03 08:49:00,
2013-01-03 03:54:00,26.3,18.0,29.95,SSW,202,0.0,-999.0,71,0.00,,,0.00,Rainwise IP-100,2013-01-03 08:54:00,
2013-01-03 03:59:00,26.2,21.0,29.94,SSW,202,0.0,-999.0,75,0.00,,,0.00,Rainwise IP-100,2013-01-03 08:59:00,
2013-01-03 04:05:00,26.1,21.0,29.94,SSW,202,0.0,-999.0,78,0.00,,,0.00,Rainwise IP-100,2013-01-03 09:05:00,
2013-01-03 04:10:00,25.9,21.0,29.94,SSW,202,0.0,-999.0,79,0.00,,,0.00,Rainwise IP-100,2013-01-03 09:10:00,
2013-01-03 04:15:00,25.7,21.0,29.94,SSW,202,0.0,-999.0,80,0.00,,,0.00,Rainwise IP-100,2013-01-03 09:15:00,
2013-01-03 04:20:00,25.6,21.0,29.93,SSW,202,0.0,-999.0,81,0.00,,,0.00,Rainwise IP-100,2013-01-03 09:20:00,
2013-01-03 04:25:00,25.5,21.0,29.94,SSW,202,0.0,-999.0,81,0.00,,,0.00,Rainwise IP-100,2013-01-03 09:25:00,
2013-01-03 04:30:00,25.5,21.0,29.93,SSW,202,0.0,-999.0,80,0.00,,,0.00,Rainwise IP-100,2013-01-03 09:30:00,
2013-01-03 04:35:00,25.4,21.0,29.93,SSW,202,0.0,-999.0,79,0.00,,,0.00,Rainwise IP-100,2013-01-03 09:35:00,
2013-01-03 04:40:00,25.4,21.0,29.94,SSW,202,0.0,-999.0,76,0.00,,,0.00,Rainwise IP-100,2013-01-03 09:40:00,
2013-01-03 04:45:00,25.4,21.0,29.94,SSW,202,0.0,-999.0,75,0.00,,,0.00,Rainwise IP-100,2013-01-03 09:45:00,
2013-01-03 04:50:00,25.4,21.0,29.94,SSW,202,0.0,-999.0,75,0.00,,,0.00,Rainwise IP-100,2013-01-03 09:50:00,
2013-01-03 04:55:00,25.4,21.0,29.94,SSW,202,0.0,-999.0,75,0.00,,,0.00,Rainwise IP-100,2013-01-03 09:55:00,
2013-01-03 05:01:00,25.4,18.0,29.94,SSW,202,0.0,-999.0,74,0.00,,,0.00,Rainwise IP-100,2013-01-03 10:01:00,
2013-01-03 05:06:00,25.5,18.0,29.94,SSW,202,0.0,-999.0,74,0.00,,,0.00,Rainwise IP-100,2013-01-03 10:06:00,
2013-01-03 05:11:00,25.5,18.0,29.94,SSW,202,0.0,-999.0,74,0.00,,,0.00,Rainwise IP-100,2013-01-03 10:11:00,
2013-01-03 05:16:00,25.5,18.0,29.95,SSW,202,0.0,-999.0,74,0.00,,,0.00,Rainwise IP-100,2013-01-03 10:16:00,
2013-01-03 05:21:00,25.4,18.0,29.94,SSW,202,0.0,-999.0,73,0.00,,,0.00,Rainwise IP-100,2013-01-03 10:21:00,
2013-01-03 05:26:00,25.3,18.0,29.94,SSW,202,0.0,-999.0,73,0.00,,,0.00,Rainwise IP-100,2013-01-03 10:26:00,
2013-01-03 05:31:00,25.3,18.0,29.94,SSW,202,0.0,-999.0,73,0.00,,,0.00,Rainwise IP-100,2013-01-03 10:31:00,
2013-01-03 05:36:00,25.2,18.0,29.94,SSW,202,0.0,-999.0,73,0.00,,,0.00,Rainwise IP-100,2013-01-03 10:36:00,
2013-01-03 05:41:00,25.1,18.0,29.94,SSW,202,0.0,-999.0,73,0.00,,,0.00,Rainwise IP-100,2013-01-03 10:41:00,
2013-01-03 05:46:00,25.1,18.0,29.94,SSW,202,0.0,-999.0,73,0.00,,,0.00,Rainwise IP-100,2013-01-03 10:46:00,
2013-01-03 05:51:00,25.0,18.0,29.95,SSW,202,0.0,-999.0,74,0.00,,,0.00,Rainwise IP-100,2013-01-03 10:51:00,
2013-01-03 05:56:00,25.0,18.0,29.95,SSW,202,0.0,-999.0,74,0.00,,,0.00,Rainwise IP-100,2013-01-03 10:56:00,
2013-01-03 06:02:00,24.9,21.0,29.95,SSW,202,0.0,-999.0,75,0.00,,,0.00,Rainwise IP-100,2013-01-03 11:02:00,
2013-01-03 06:07:00,24.9,18.0,29.95,SSW,202,0.0,-999.0,74,0.00,,,0.00,Rainwise IP-100,2013-01-03 11:07:00,
2013-01-03 06:12:00,25.0,18.0,29.95,SSW,202,0.0,-999.0,73,0.00,,,0.00,Rainwise IP-100,2013-01-03 11:12:00,
2013-01-03 06:17:00,25.0,18.0,29.95,SSW,202,0.0,-999.0,73,0.00,,,0.00,Rainwise IP-100,2013-01-03 11:17:00,
2013-01-03 06:22:00,24.9,18.0,29.96,SSW,202,0.0,-999.0,72,0.00,,,0.00,Rainwise IP-100,2013-01-03 11:22:00,
2013-01-03 06:27:00,24.8,18.0,29.96,SSW,202,0.0,-999.0,73,0.00,,,0.00,Rainwise IP-100,2013-01-03 11:27:00,
2013-01-03 06:32:00,24.8,18.0,29.96,SSW,202,0.0,-999.0,74,0.00,,,0.00,Rainwise IP-100,2013-01-03 11:32:00,
2013-01-03 06:37:00,24.8,21.0,29.96,SSW,202,0.0,-999.0,75,0.00,,,0.00,Rainwise IP-100,2013-01-03 11:37:00,
2013-01-03 06:42:00,24.7,21.0,29.96,SSW,202,0.0,-999.0,75,0.00,,,0.00,Rainwise IP-100,2013-01-03 11:42:00,
2013-01-03 06:47:00,24.7,21.0,29.97,SSW,202,0.0,-999.0,75,0.00,,,0.00,Rainwise IP-100,2013-01-03 11:47:00,
2013-01-03 06:52:00,24.5,21.0,29.96,SSW,202,0.0,-999.0,76,0.00,,,0.00,Rainwise IP-100,2013-01-03 11:52:00,
2013-01-03 06:57:00,24.3,18.0,29.96,SSW,202,0.0,-999.0,79,0.00,,,0.00,Rainwise IP-100,2013-01-03 11:57:00,
2013-01-03 07:03:00,24.1,21.0,29.96,SSW,202,0.0,-999.0,82,0.00,,,0.00,Rainwise IP-100,2013-01-03 12:03:00,
2013-01-03 07:08:00,23.9,21.0,29.96,SSW,202,0.0,-999.0,84,0.00,,,0.00,Rainwise IP-100,2013-01-03 12:08:00,
2013-01-03 07:13:00,23.6,21.0,29.96,SSW,202,0.0,-999.0,85,0.00,,,0.00,Rainwise IP-100,2013-01-03 12:13:00,
2013-01-03 07:18:00,23.4,18.0,29.96,SSW,202,0.0,-999.0,85,0.00,,,0.00,Rainwise IP-100,2013-01-03 12:18:00,
2013-01-03 07:23:00,23.1,18.0,29.97,SSW,202,0.0,-999.0,85,0.00,,,0.00,Rainwise IP-100,2013-01-03 12:23:00,
2013-01-03 07:28:00,22.9,18.0,29.97,SSW,202,0.0,-999.0,86,0.00,,,0.00,Rainwise IP-100,2013-01-03 12:28:00,
2013-01-03 07:33:00,22.8,18.0,29.97,SSW,202,0.0,-999.0,86,0.00,,,0.00,Rainwise IP-100,2013-01-03 12:33:00,
2013-01-03 07:38:00,22.7,18.0,29.97,SSW,202,0.0,-999.0,86,0.00,,,0.00,Rainwise IP-100,2013-01-03 12:38:00,
2013-01-03 07:43:00,22.5,18.0,29.96,SSW,202,0.0,-999.0,85,0.00,,,0.00,Rainwise IP-100,2013-01-03 12:43:00,
2013-01-03 07:48:00,22.3,18.0,29.96,SSW,202,0.0,-999.0,85,0.00,,,0.00,Rainwise IP-100,2013-01-03 12:48:00,
2013-01-03 07:53:00,22.1,18.0,29.96,SSW,202,0.0,-999.0,84,0.00,,,0.00,Rainwise IP-100,2013-01-03 12:53:00,
2013-01-03 07:58:00,22.1,18.0,29.96,SSW,202,0.0,-999.0,84,0.00,,,0.00,Rainwise IP-100,2013-01-03 12:58:00,
2013-01-03 08:04:00,22.1,18.0,29.97,SSW,202,0.0,-999.0,84,0.00,,,0.00,Rainwise IP-100,2013-01-03 13:04:00,
2013-01-03 08:09:00,22.0,18.0,29.97,SSW,202,0.0,-999.0,84,0.00,,,0.00,Rainwise IP-100,2013-01-03 13:09:00,
2013-01-03 08:14:00,22.0,18.0,29.97,SSW,202,0.0,-999.0,84,0.00,,,0.00,Rainwise IP-100,2013-01-03 13:14:00,
2013-01-03 08:19:00,22.0,18.0,29.97,SSW,202,0.0,-999.0,84,0.00,,,0.00,Rainwise IP-100,2013-01-03 13:19:00,
2013-01-03 08:24:00,22.0,18.0,29.97,SSW,202,0.0,-999.0,84,0.00,,,0.00,Rainwise IP-100,2013-01-03 13:24:00,
2013-01-03 08:29:00,22.0,18.0,29.97,SSW,202,0.0,-999.0,85,0.00,,,0.00,Rainwise IP-100,2013-01-03 13:29:00,
2013-01-03 08:34:00,22.2,18.0,29.97,SSW,202,0.0,-999.0,85,0.00,,,0.00,Rainwise IP-100,2013-01-03 13:34:00,
2013-01-03 08:39:00,22.5,18.0,29.97,SSW,202,0.0,-999.0,85,0.00,,,0.00,Rainwise IP-100,2013-01-03 13:39:00,
2013-01-03 08:44:00,22.8,18.0,29.97,SSW,202,0.0,-999.0,84,0.00,,,0.00,Rainwise IP-100,2013-01-03 13:44:00,
2013-01-03 08:49:00,23.1,18.0,29.97,SSW,202,0.0,-999.0,83,0.00,,,0.00,Rainwise IP-100,2013-01-03 13:49:00,
2013-01-03 08:54:00,23.4,18.0,29.98,SSW,202,0.0,-999.0,83,0.00,,,0.00,Rainwise IP-100,2013-01-03 13:54:00,
2013-01-03 08:59:00,23.7,21.0,29.98,SSW,202,0.0,-999.0,83,0.00,,,0.00,Rainwise IP-100,2013-01-03 13:59:00,
2013-01-03 09:05:00,24.0,21.0,29.98,SSW,202,0.0,-999.0,82,0.00,,,0.00,Rainwise IP-100,2013-01-03 14:05:00,
2013-01-03 09:10:00,24.3,21.0,29.98,SSW,202,0.0,-999.0,81,0.00,,,0.00,Rainwise IP-100,2013-01-03 14:10:00,
2013-01-03 09:15:00,24.9,21.0,29.98,SSW,202,0.0,-999.0,80,0.00,,,0.00,Rainwise IP-100,2013-01-03 14:15:00,
2013-01-03 09:20:00,25.6,21.0,29.98,SSW,202,0.0,-999.0,78,0.00,,,0.00,Rainwise IP-100,2013-01-03 14:20:00,
2013-01-03 09:25:00,26.7,21.0,29.98,SSW,202,0.0,-999.0,74,0.00,,,0.00,Rainwise IP-100,2013-01-03 14:25:00,
2013-01-03 09:30:00,27.6,21.0,29.98,SSW,202,0.0,-999.0,72,0.00,,,0.00,Rainwise IP-100,2013-01-03 14:30:00,
2013-01-03 09:35:00,28.4,18.0,29.98,SSW,202,0.0,-999.0,68,0.00,,,0.00,Rainwise IP-100,2013-01-03 14:35:00,
2013-01-03 09:40:00,29.0,21.0,29.98,SSW,202,0.0,-999.0,66,0.00,,,0.00,Rainwise IP-100,2013-01-03 14:40:00,
2013-01-03 09:45:00,29.4,18.0,29.99,ENE,67,0.0,-999.0,63,0.00,,,0.00,Rainwise IP-100,2013-01-03 14:45:00,
2013-01-03 09:50:00,29.8,21.0,29.98,ENE,67,0.0,-999.0,62,0.00,,,0.00,Rainwise IP-100,2013-01-03 14:50:00,
2013-01-03 09:55:00,30.2,18.0,29.99,ENE,67,0.0,-999.0,60,0.00,,,0.00,Rainwise IP-100,2013-01-03 14:55:00,
2013-01-03 10:00:00,30.6,18.0,29.98,ENE,67,0.0,-999.0,59,0.00,,,0.00,Rainwise IP-100,2013-01-03 15:00:00,
2013-01-03 10:06:00,30.9,18.0,29.98,South,180,0.0,-999.0,58,0.00,,,0.00,Rainwise IP-100,2013-01-03 15:06:00,
2013-01-03 10:11:00,31.1,18.0,29.98,South,180,0.0,-999.0,57,0.00,,,0.00,Rainwise IP-100,2013-01-03 15:11:00,
2013-01-03 10:16:00,31.4,18.0,29.98,South,180,0.0,-999.0,57,0.00,,,0.00,Rainwise IP-100,2013-01-03 15:16:00,
2013-01-03 10:21:00,31.8,18.0,29.99,SSW,202,1.2,-999.0,56,0.00,,,0.00,Rainwise IP-100,2013-01-03 15:21:00,
2013-01-03 10:26:00,32.3,18.0,29.97,NNE,22,1.2,-999.0,55,0.00,,,0.00,Rainwise IP-100,2013-01-03 15:26:00,
2013-01-03 10:31:00,32.7,18.0,29.98,NNE,22,0.0,-999.0,55,0.00,,,0.00,Rainwise IP-100,2013-01-03 15:31:00,
2013-01-03 10:36:00,33.1,18.0,29.97,NNE,22,0.0,-999.0,55,0.00,,,0.00,Rainwise IP-100,2013-01-03 15:36:00,
2013-01-03 10:41:00,33.6,21.0,29.98,NNE,22,1.2,-999.0,56,0.00,,,0.00,Rainwise IP-100,2013-01-03 15:41:00,
2013-01-03 10:46:00,33.7,21.0,29.97,SSE,157,0.0,-999.0,56,0.00,,,0.00,Rainwise IP-100,2013-01-03 15:46:00,
2013-01-03 10:51:00,33.7,21.0,29.97,ENE,67,0.0,-999.0,53,0.00,,,0.00,Rainwise IP-100,2013-01-03 15:51:00,
2013-01-03 10:56:00,33.8,21.0,29.97,NE,45,0.0,-999.0,53,0.00,,,0.00,Rainwise IP-100,2013-01-03 15:56:00,
2013-01-03 11:02:00,34.2,18.0,29.97,SSW,202,0.0,-999.0,52,0.00,,,0.00,Rainwise IP-100,2013-01-03 16:02:00,
2013-01-03 11:07:00,34.4,21.0,29.97,SSW,202,0.0,-999.0,53,0.00,,,0.00,Rainwise IP-100,2013-01-03 16:07:00,
2013-01-03 11:12:00,34.7,21.0,29.96,SSW,202,0.0,-999.0,56,0.00,,,0.00,Rainwise IP-100,2013-01-03 16:12:00,
2013-01-03 11:17:00,35.0,21.0,29.96,SSW,202,0.0,-999.0,55,0.00,,,0.00,Rainwise IP-100,2013-01-03 16:17:00,
2013-01-03 11:22:00,35.1,21.0,29.95,SSW,202,0.0,-999.0,54,0.00,,,0.00,Rainwise IP-100,2013-01-03 16:22:00,
2013-01-03 11:27:00,35.2,21.0,29.95,SSW,202,0.0,-999.0,53,0.00,,,0.00,Rainwise IP-100,2013-01-03 16:27:00,
2013-01-03 11:32:00,35.3,21.0,29.95,SSW,202,0.0,-999.0,53,0.00,,,0.00,Rainwise IP-100,2013-01-03 16:32:00,
2013-01-03 11:37:00,35.1,21.0,29.95,SSW,202,1.2,-999.0,54,0.00,,,0.00,Rainwise IP-100,2013-01-03 16:37:00,
2013-01-03 11:42:00,35.0,18.0,29.95,SSW,202,0.0,-999.0,52,0.00,,,0.00,Rainwise IP-100,2013-01-03 16:42:00,
2013-01-03 11:47:00,35.1,18.0,29.95,NE,45,0.0,-999.0,52,0.00,,,0.00,Rainwise IP-100,2013-01-03 16:47:00,
2013-01-03 11:52:00,35.2,21.0,29.95,SW,225,0.0,-999.0,53,0.00,,,0.00,Rainwise IP-100,2013-01-03 16:52:00,
2013-01-03 11:57:00,35.2,21.0,29.94,SW,225,1.2,-999.0,53,0.00,,,0.00,Rainwise IP-100,2013-01-03 16:57:00,
2013-01-03 12:02:00,35.3,18.0,29.94,SW,225,0.0,-999.0,52,0.00,,,0.00,Rainwise IP-100,2013-01-03 17:02:00,
2013-01-03 12:08:00,35.3,21.0,29.93,SW,225,0.0,-999.0,53,0.00,,,0.00,Rainwise IP-100,2013-01-03 17:08:00,
2013-01-03 12:13:00,35.4,18.0,29.93,SW,225,2.3,-999.0,52,0.00,,,0.00,Rainwise IP-100,2013-01-03 17:13:00,
2013-01-03 12:18:00,35.4,18.0,29.92,NNE,22,0.0,-999.0,51,0.00,,,0.00,Rainwise IP-100,2013-01-03 17:18:00,
2013-01-03 12:23:00,35.5,21.0,29.93,North,360,0.0,-999.0,50,0.00,,,0.00,Rainwise IP-100,2013-01-03 17:23:00,
2013-01-03 12:28:00,35.7,21.0,29.92,North,360,0.0,-999.0,52,0.00,,,0.00,Rainwise IP-100,2013-01-03 17:28:00,
2013-01-03 12:33:00,35.8,21.0,29.92,West,270,1.2,-999.0,53,0.00,,,0.00,Rainwise IP-100,2013-01-03 17:33:00,
2013-01-03 12:38:00,35.9,21.0,29.91,West,270,0.0,-999.0,50,0.00,,,0.00,Rainwise IP-100,2013-01-03 17:38:00,
2013-01-03 12:43:00,36.1,18.0,29.91,NNE,22,1.6,-999.0,49,0.00,,,0.00,Rainwise IP-100,2013-01-03 17:43:00,
2013-01-03 12:48:00,36.3,21.0,29.91,NNE,22,0.0,-999.0,50,0.00,,,0.00,Rainwise IP-100,2013-01-03 17:48:00,
2013-01-03 12:53:00,36.4,21.0,29.90,SW,225,1.2,-999.0,50,0.00,,,0.00,Rainwise IP-100,2013-01-03 17:53:00,
2013-01-03 12:58:00,36.3,21.0,29.90,SW,225,0.0,-999.0,50,0.00,,,0.00,Rainwise IP-100,2013-01-03 17:58:00,
2013-01-03 13:03:00,36.2,21.0,29.90,SW,225,0.0,-999.0,51,0.00,,,0.00,Rainwise IP-100,2013-01-03 18:03:00,
2013-01-03 13:09:00,36.2,21.0,29.90,WNW,292,0.0,-999.0,52,0.00,,,0.00,Rainwise IP-100,2013-01-03 18:09:00,
2013-01-03 13:14:00,36.1,21.0,29.90,WNW,292,0.0,-999.0,52,0.00,,,0.00,Rainwise IP-100,2013-01-03 18:14:00,
2013-01-03 13:19:00,36.1,21.0,29.89,WNW,292,0.0,-999.0,52,0.00,,,0.00,Rainwise IP-100,2013-01-03 18:19:00,
2013-01-03 13:24:00,36.1,21.0,29.90,WNW,292,0.0,-999.0,52,0.00,,,0.00,Rainwise IP-100,2013-01-03 18:24:00,
2013-01-03 13:29:00,36.1,21.0,29.90,NNE,22,0.0,-999.0,52,0.00,,,0.00,Rainwise IP-100,2013-01-03 18:29:00,
2013-01-03 13:34:00,36.0,21.0,29.89,SSE,157,0.0,-999.0,53,0.00,,,0.00,Rainwise IP-100,2013-01-03 18:34:00,
2013-01-03 13:39:00,35.9,21.0,29.89,SSW,202,1.6,-999.0,52,0.00,,,0.00,Rainwise IP-100,2013-01-03 18:39:00,
2013-01-03 13:44:00,35.8,21.0,29.89,SSE,157,0.0,-999.0,51,0.00,,,0.00,Rainwise IP-100,2013-01-03 18:44:00,
2013-01-03 13:49:00,35.7,21.0,29.89,WNW,292,0.0,-999.0,52,0.00,,,0.00,Rainwise IP-100,2013-01-03 18:49:00,
2013-01-03 13:54:00,35.7,21.0,29.88,SSW,202,1.4,-999.0,52,0.00,,,0.00,Rainwise IP-100,2013-01-03 18:54:00,
2013-01-03 13:59:00,35.6,21.0,29.88,SSW,202,0.0,-999.0,50,0.00,,,0.00,Rainwise IP-100,2013-01-03 18:59:00,
2013-01-03 14:04:00,35.6,21.0,29.88,SSW,202,1.4,-999.0,50,0.00,,,0.00,Rainwise IP-100,2013-01-03 19:04:00,
2013-01-03 14:10:00,35.6,21.0,29.88,SSW,202,0.0,-999.0,50,0.00,,,0.00,Rainwise IP-100,2013-01-03 19:10:00,
2013-01-03 14:15:00,35.6,21.0,29.88,SSW,202,0.0,-999.0,50,0.00,,,0.00,Rainwise IP-100,2013-01-03 19:15:00,
2013-01-03 14:55:00,36.0,18.0,29.89,South,180,0.0,-999.0,46,0.00,,,0.00,Rainwise IP-100,2013-01-03 19:55:00,
2013-01-03 15:00:00,36.1,18.0,29.90,SSW,202,1.9,-999.0,47,0.00,,,0.00,Rainwise IP-100,2013-01-03 20:00:00,
2013-01-03 15:05:00,36.1,18.0,29.90,SSW,202,0.0,-999.0,47,0.00,,,0.00,Rainwise IP-100,2013-01-03 20:05:00,
2013-01-03 15:11:00,36.1,18.0,29.89,SSW,202,1.2,-999.0,48,0.00,,,0.00,Rainwise IP-100,2013-01-03 20:11:00,
2013-01-03 15:16:00,36.0,18.0,29.89,SW,225,0.0,-999.0,47,0.00,,,0.00,Rainwise IP-100,2013-01-03 20:16:00,
2013-01-03 15:21:00,36.0,18.0,29.89,SSW,202,0.0,-999.0,48,0.00,,,0.00,Rainwise IP-100,2013-01-03 20:21:00,
2013-01-03 15:26:00,35.9,21.0,29.89,SSW,202,0.0,-999.0,50,0.00,,,0.00,Rainwise IP-100,2013-01-03 20:26:00,
2013-01-03 15:31:00,35.7,21.0,29.89,SSW,202,0.0,-999.0,51,0.00,,,0.00,Rainwise IP-100,2013-01-03 20:31:00,
2013-01-03 15:36:00,35.6,21.0,29.89,SSW,202,0.0,-999.0,51,0.00,,,0.00,Rainwise IP-100,2013-01-03 20:36:00,
2013-01-03 15:41:00,35.6,21.0,29.89,SSW,202,0.0,-999.0,50,0.00,,,0.00,Rainwise IP-100,2013-01-03 20:41:00,
2013-01-03 15:46:00,35.5,21.0,29.89,SSW,202,0.0,-999.0,50,0.00,,,0.00,Rainwise IP-100,2013-01-03 20:46:00,
2013-01-03 15:51:00,35.3,21.0,29.89,SSW,202,0.0,-999.0,53,0.00,,,0.00,Rainwise IP-100,2013-01-03 20:51:00,
2013-01-03 15:56:00,35.2,21.0,29.89,SSW,202,0.0,-999.0,54,0.00,,,0.00,Rainwise IP-100,2013-01-03 20:56:00,
2013-01-03 16:01:00,35.1,18.0,29.89,SSW,202,0.0,-999.0,52,0.00,,,0.00,Rainwise IP-100,2013-01-03 21:01:00,
2013-01-03 16:06:00,35.0,18.0,29.90,SSW,202,0.0,-999.0,52,0.00,,,0.00,Rainwise IP-100,2013-01-03 21:06:00,
2013-01-03 16:12:00,34.9,21.0,29.89,SSW,202,0.0,-999.0,53,0.00,,,0.00,Rainwise IP-100,2013-01-03 21:12:00,
2013-01-03 16:17:00,34.7,23.0,29.89,SSW,202,0.0,-999.0,58,0.00,,,0.00,Rainwise IP-100,2013-01-03 21:17:00,
2013-01-03 16:22:00,34.6,23.0,29.89,SSW,202,0.0,-999.0,59,0.00,,,0.00,Rainwise IP-100,2013-01-03 21:22:00,
2013-01-03 16:27:00,34.4,23.0,29.90,SSW,202,0.0,-999.0,59,0.00,,,0.00,Rainwise IP-100,2013-01-03 21:27:00,
2013-01-03 16:32:00,34.3,23.0,29.90,SSW,202,0.0,-999.0,62,0.00,,,0.00,Rainwise IP-100,2013-01-03 21:32:00,
2013-01-03 16:37:00,34.0,24.0,29.90,SSW,202,0.0,-999.0,64,0.00,,,0.00,Rainwise IP-100,2013-01-03 21:37:00,
2013-01-03 16:42:00,33.8,24.0,29.90,SSW,202,0.0,-999.0,64,0.00,,,0.00,Rainwise IP-100,2013-01-03 21:42:00,
2013-01-03 16:47:00,33.7,24.0,29.90,SSW,202,0.0,-999.0,66,0.00,,,0.00,Rainwise IP-100,2013-01-03 21:47:00,
2013-01-03 16:52:00,33.5,26.0,29.90,SSW,202,0.0,-999.0,68,0.00,,,0.00,Rainwise IP-100,2013-01-03 21:52:00,
2013-01-03 16:57:00,33.2,24.0,29.90,SSW,202,0.0,-999.0,69,0.00,,,0.00,Rainwise IP-100,2013-01-03 21:57:00,
2013-01-03 17:03:00,32.9,24.0,29.90,SSW,202,0.0,-999.0,69,0.00,,,0.00,Rainwise IP-100,2013-01-03 22:03:00,
2013-01-03 17:09:00,32.8,24.0,29.90,SSW,202,0.0,-999.0,71,0.00,,,0.00,Rainwise IP-100,2013-01-03 22:09:00,
2013-01-03 17:14:00,32.6,26.0,29.90,SSW,202,0.0,-999.0,73,0.00,,,0.00,Rainwise IP-100,2013-01-03 22:14:00,
2013-01-03 17:19:00,32.3,24.0,29.90,SSW,202,0.0,-999.0,74,0.00,,,0.00,Rainwise IP-100,2013-01-03 22:19:00,
2013-01-03 17:24:00,32.0,26.0,29.90,SSW,202,0.0,-999.0,75,0.00,,,0.00,Rainwise IP-100,2013-01-03 22:24:00,
2013-01-03 17:29:00,31.8,24.0,29.91,SSW,202,0.0,-999.0,74,0.00,,,0.00,Rainwise IP-100,2013-01-03 22:29:00,
2013-01-03 17:34:00,31.7,24.0,29.90,SSW,202,0.0,-999.0,73,0.00,,,0.00,Rainwise IP-100,2013-01-03 22:34:00,
2013-01-03 17:39:00,31.5,24.0,29.91,SSW,202,0.0,-999.0,74,0.00,,,0.00,Rainwise IP-100,2013-01-03 22:39:00,
2013-01-03 17:44:00,31.3,24.0,29.91,SSW,202,0.0,-999.0,76,0.00,,,0.00,Rainwise IP-100,2013-01-03 22:44:00,
2013-01-03 17:49:00,31.1,24.0,29.91,SSW,202,0.0,-999.0,76,0.00,,,0.00,Rainwise IP-100,2013-01-03 22:49:00,
2013-01-03 17:54:00,30.9,24.0,29.91,SSW,202,0.0,-999.0,77,0.00,,,0.00,Rainwise IP-100,2013-01-03 22:54:00,
2013-01-03 17:59:00,30.6,24.0,29.91,SSW,202,0.0,-999.0,78,0.00,,,0.00,Rainwise IP-100,2013-01-03 22:59:00,
2013-01-03 18:04:00,30.3,24.0,29.91,SSW,202,0.0,-999.0,79,0.00,,,0.00,Rainwise IP-100,2013-01-03 23:04:00,
2013-01-03 18:10:00,30.0,24.0,29.91,SSW,202,0.0,-999.0,79,0.00,,,0.00,Rainwise IP-100,2013-01-03 23:10:00,
2013-01-03 18:15:00,29.7,26.0,29.91,SSW,202,0.0,-999.0,80,0.00,,,0.00,Rainwise IP-100,2013-01-03 23:15:00,
2013-01-03 18:20:00,29.3,24.0,29.91,SSW,202,0.0,-999.0,79,0.00,,,0.00,Rainwise IP-100,2013-01-03 23:20:00,
2013-01-03 18:25:00,29.2,23.0,29.91,SSW,202,0.0,-999.0,77,0.00,,,0.00,Rainwise IP-100,2013-01-03 23:25:00,
2013-01-03 18:30:00,29.1,23.0,29.91,SSW,202,0.0,-999.0,78,0.00,,,0.00,Rainwise IP-100,2013-01-03 23:30:00,
2013-01-03 18:35:00,29.0,24.0,29.91,SSW,202,0.0,-999.0,80,0.00,,,0.00,Rainwise IP-100,2013-01-03 23:35:00,
2013-01-03 18:40:00,28.8,24.0,29.90,SSW,202,0.0,-999.0,82,0.00,,,0.00,Rainwise IP-100,2013-01-03 23:40:00,
2013-01-03 18:45:00,28.5,24.0,29.91,SSW,202,0.0,-999.0,83,0.00,,,0.00,Rainwise IP-100,2013-01-03 23:45:00,
2013-01-03 18:50:00,28.2,23.0,29.91,SSW,202,0.0,-999.0,83,0.00,,,0.00,Rainwise IP-100,2013-01-03 23:50:00,
2013-01-03 18:55:00,27.9,23.0,29.91,SSW,202,0.0,-999.0,83,0.00,,,0.00,Rainwise IP-100,2013-01-03 23:55:00,
2013-01-03 19:00:00,27.6,24.0,29.91,SSW,202,0.0,-999.0,84,0.00,,,0.00,Rainwise IP-100,2013-01-04 00:00:00,
2013-01-03 19:05:00,27.4,23.0,29.91,SSW,202,0.0,-999.0,83,0.00,,,0.00,Rainwise IP-100,2013-01-04 00:05:00,
2013-01-03 19:11:00,27.2,23.0,29.91,SSW,202,0.0,-999.0,81,0.00,,,0.00,Rainwise IP-100,2013-01-04 00:11:00,
2013-01-03 19:16:00,27.1,23.0,29.91,SSW,202,0.0,-999.0,80,0.00,,,0.00,Rainwise IP-100,2013-01-04 00:16:00,
2013-01-03 19:21:00,27.0,23.0,29.91,SSW,202,0.0,-999.0,81,0.00,,,0.00,Rainwise IP-100,2013-01-04 00:21:00,
2013-01-03 19:26:00,26.9,23.0,29.91,SSW,202,0.0,-999.0,82,0.00,,,0.00,Rainwise IP-100,2013-01-04 00:26:00,
2013-01-03 19:31:00,26.7,24.0,29.90,SSW,202,0.0,-999.0,84,0.00,,,0.00,Rainwise IP-100,2013-01-04 00:31:00,
2013-01-03 19:36:00,26.6,24.0,29.90,SSW,202,0.0,-999.0,84,0.00,,,0.00,Rainwise IP-100,2013-01-04 00:36:00,
2013-01-03 19:41:00,26.4,23.0,29.91,SSW,202,0.0,-999.0,83,0.00,,,0.00,Rainwise IP-100,2013-01-04 00:41:00,
2013-01-03 19:46:00,26.3,21.0,29.91,SSW,202,0.0,-999.0,82,0.00,,,0.00,Rainwise IP-100,2013-01-04 00:46:00,
2013-01-03 19:52:00,26.2,21.0,29.91,SSW,202,0.0,-999.0,81,0.00,,,0.00,Rainwise IP-100,2013-01-04 00:52:00,
2013-01-03 19:57:00,26.1,21.0,29.91,SSW,202,0.0,-999.0,81,0.00,,,0.00,Rainwise IP-100,2013-01-04 00:57:00,
2013-01-03 20:02:00,26.1,21.0,29.91,SSW,202,0.0,-999.0,81,0.00,,,0.00,Rainwise IP-100,2013-01-04 01:02:00,
2013-01-03 20:07:00,26.1,21.0,29.91,SSW,202,0.0,-999.0,80,0.00,,,0.00,Rainwise IP-100,2013-01-04 01:07:00,
2013-01-03 20:13:00,26.1,21.0,29.91,SSW,202,0.0,-999.0,80,0.00,,,0.00,Rainwise IP-100,2013-01-04 01:13:00,
2013-01-03 20:18:00,26.0,21.0,29.90,SSW,202,0.0,-999.0,80,0.00,,,0.00,Rainwise IP-100,2013-01-04 01:18:00,
2013-01-03 20:23:00,25.9,21.0,29.90,SSW,202,0.0,-999.0,80,0.00,,,0.00,Rainwise IP-100,2013-01-04 01:23:00,
2013-01-03 20:28:00,25.8,21.0,29.91,SSW,202,0.0,-999.0,80,0.00,,,0.00,Rainwise IP-100,2013-01-04 01:28:00,
2013-01-03 20:33:00,26.0,21.0,29.91,SSW,202,0.0,-999.0,79,0.00,,,0.00,Rainwise IP-100,2013-01-04 01:33:00,
2013-01-03 20:38:00,26.3,21.0,29.91,SSW,202,0.0,-999.0,78,0.00,,,0.00,Rainwise IP-100,2013-01-04 01:38:00,
2013-01-03 20:43:00,26.6,23.0,29.90,SSW,202,0.0,-999.0,78,0.00,,,0.00,Rainwise IP-100,2013-01-04 01:43:00,
2013-01-03 20:48:00,26.6,23.0,29.90,SSW,202,0.0,-999.0,78,0.00,,,0.00,Rainwise IP-100,2013-01-04 01:48:00,
2013-01-03 20:53:00,26.6,23.0,29.90,SSW,202,0.0,-999.0,78,0.00,,,0.00,Rainwise IP-100,2013-01-04 01:53:00,
2013-01-03 20:59:00,26.5,23.0,29.91,SSW,202,0.0,-999.0,78,0.00,,,0.00,Rainwise IP-100,2013-01-04 01:59:00,
2013-01-03 21:04:00,26.5,23.0,29.91,SSW,202,0.0,-999.0,78,0.00,,,0.00,Rainwise IP-100,2013-01-04 02:04:00,
2013-01-03 21:09:00,26.5,23.0,29.91,SSW,202,0.0,-999.0,78,0.00,,,0.00,Rainwise IP-100,2013-01-04 02:09:00,
2013-01-03 21:15:00,26.5,23.0,29.90,SSW,202,0.0,-999.0,79,0.00,,,0.00,Rainwise IP-100,2013-01-04 02:15:00,
2013-01-03 21:20:00,26.4,21.0,29.90,SSW,202,0.0,-999.0,80,0.00,,,0.00,Rainwise IP-100,2013-01-04 02:20:00,
2013-01-03 21:25:00,26.2,21.0,29.91,SSW,202,0.0,-999.0,80,0.00,,,0.00,Rainwise IP-100,2013-01-04 02:25:00,
2013-01-03 21:30:00,26.0,21.0,29.91,SSW,202,0.0,-999.0,80,0.00,,,0.00,Rainwise IP-100,2013-01-04 02:30:00,
2013-01-03 21:35:00,25.9,21.0,29.91,SSW,202,0.0,-999.0,80,0.00,,,0.00,Rainwise IP-100,2013-01-04 02:35:00,
2013-01-03 21:40:00,25.9,21.0,29.91,SSW,202,0.0,-999.0,80,0.00,,,0.00,Rainwise IP-100,2013-01-04 02:40:00,
2013-01-03 21:45:00,25.9,21.0,29.91,SSW,202,0.0,-999.0,80,0.00,,,0.00,Rainwise IP-100,2013-01-04 02:45:00,
2013-01-03 21:50:00,25.8,21.0,29.91,SSW,202,0.0,-999.0,80,0.00,,,0.00,Rainwise IP-100,2013-01-04 02:50:00,
2013-01-03 21:55:00,25.7,21.0,29.91,SSW,202,0.0,-999.0,80,0.00,,,0.00,Rainwise IP-100,2013-01-04 02:55:00,
2013-01-03 22:00:00,25.7,21.0,29.91,SSW,202,0.0,-999.0,80,0.00,,,0.00,Rainwise IP-100,2013-01-04 03:00:00,
2013-01-03 22:05:00,26.0,21.0,29.92,SSW,202,0.0,-999.0,79,0.00,,,0.00,Rainwise IP-100,2013-01-04 03:05:00,
2013-01-03 22:10:00,26.2,21.0,29.91,SSW,202,0.0,-999.0,79,0.00,,,0.00,Rainwise IP-100,2013-01-04 03:10:00,
2013-01-03 22:16:00,26.3,21.0,29.92,SSW,202,0.0,-999.0,79,0.00,,,0.00,Rainwise IP-100,2013-01-04 03:16:00,
2013-01-03 22:21:00,26.3,21.0,29.92,SSW,202,0.0,-999.0,79,0.00,,,0.00,Rainwise IP-100,2013-01-04 03:21:00,
2013-01-03 22:26:00,26.1,21.0,29.92,SSW,202,0.0,-999.0,80,0.00,,,0.00,Rainwise IP-100,2013-01-04 03:26:00,
2013-01-03 22:31:00,26.0,21.0,29.92,SSW,202,0.0,-999.0,80,0.00,,,0.00,Rainwise IP-100,2013-01-04 03:31:00,
2013-01-03 22:36:00,25.8,21.0,29.92,SSW,202,0.0,-999.0,80,0.00,,,0.00,Rainwise IP-100,2013-01-04 03:36:00,
2013-01-03 22:41:00,25.7,21.0,29.92,SSW,202,0.0,-999.0,80,0.00,,,0.00,Rainwise IP-100,2013-01-04 03:41:00,
2013-01-03 22:46:00,25.6,21.0,29.92,SSW,202,0.0,-999.0,81,0.00,,,0.00,Rainwise IP-100,2013-01-04 03:46:00,
2013-01-03 22:51:00,25.6,21.0,29.92,SSW,202,0.0,-999.0,81,0.00,,,0.00,Rainwise IP-100,2013-01-04 03:51:00,
2013-01-03 22:56:00,25.5,21.0,29.92,SSW,202,0.0,-999.0,81,0.00,,,0.00,Rainwise IP-100,2013-01-04 03:56:00,
2013-01-03 23:01:00,25.4,21.0,29.92,SSW,202,0.0,-999.0,82,0.00,,,0.00,Rainwise IP-100,2013-01-04 04:01:00,
2013-01-03 23:06:00,25.4,21.0,29.92,SSW,202,0.0,-999.0,82,0.00,,,0.00,Rainwise IP-100,2013-01-04 04:06:00,
2013-01-03 23:11:00,25.6,21.0,29.92,SSW,202,0.0,-999.0,81,0.00,,,0.00,Rainwise IP-100,2013-01-04 04:11:00,
2013-01-03 23:17:00,25.7,21.0,29.92,SSW,202,0.0,-999.0,80,0.00,,,0.00,Rainwise IP-100,2013-01-04 04:17:00,
2013-01-03 23:22:00,25.7,21.0,29.92,SSW,202,0.0,-999.0,80,0.00,,,0.00,Rainwise IP-100,2013-01-04 04:22:00,
2013-01-03 23:27:00,25.6,21.0,29.91,SSW,202,0.0,-999.0,81,0.00,,,0.00,Rainwise IP-100,2013-01-04 04:27:00,
2013-01-03 23:32:00,25.5,21.0,29.91,SSW,202,0.0,-999.0,81,0.00,,,0.00,Rainwise IP-100,2013-01-04 04:32:00,
2013-01-03 23:37:00,25.8,21.0,29.92,SSW,202,0.0,-999.0,80,0.00,,,0.00,Rainwise IP-100,2013-01-04 04:37:00,
2013-01-03 23:42:00,26.2,21.0,29.91,SSW,202,1.6,-999.0,80,0.00,,,0.00,Rainwise IP-100,2013-01-04 04:42:00,
2013-01-03 23:47:00,26.0,21.0,29.91,SSW,202,0.0,-999.0,81,0.00,,,0.00,Rainwise IP-100,2013-01-04 04:47:00,
2013-01-03 23:52:00,25.7,21.0,29.90,SSW,202,0.0,-999.0,81,0.00,,,0.00,Rainwise IP-100,2013-01-04 04:52:00,
2013-01-03 23:57:00,25.4,21.0,29.91,SSW,202,0.0,-999.0,82,0.00,,,0.00,Rainwise IP-100,2013-01-04 04:57:00,